DW8463 Weather Reports


time (UTC)temp
F
wind
direction
speed
knots
gust
knots
rain 1hr
in
rain 24hr
in
rain mn
in
humidity
%
barometer
mb
20240222100803 26 345 0.0 0.0 0.00 0.00 0.00 92 1009.6
20240222100303 25 344 0.0 0.0 0.00 0.00 0.00 92 1009.7
20240222095804 25 341 0.0 0.0 0.00 0.00 0.00 86 1009.7
20240222094804 25 340 0.0 0.0 0.00 0.00 0.00 86 1009.8
20240222094304 25 340 0.0 0.0 0.00 0.00 0.00 86 1009.8
20240222093804 25 340 0.0 0.0 0.00 0.00 0.00 86 1009.8
20240222093304 25 340 0.0 0.0 0.00 0.00 0.00 86 1010.0
20240222092803 25 340 0.0 0.0 0.00 0.00 0.00 86 1010.1
20240222092306 25 339 0.0 0.0 0.00 0.00 0.00 86 1010.0
20240222091804 25 339 0.0 0.0 0.00 0.00 0.00 86 1010.1
20240222091304 25 339 0.0 0.0 0.00 0.00 0.00 86 1010.1
20240222090804 25 338 0.0 0.0 0.00 0.00 0.00 86 1010.2
20240222090304 25 338 0.0 0.0 0.00 0.00 0.00 86 1010.1
20240222085804 25 336 0.0 0.0 0.00 0.00 0.00 86 1010.2
20240222084804 25 336 0.0 0.0 0.00 0.00 0.00 86 1010.3
20240222083804 25 336 0.0 0.0 0.00 0.00 0.00 86 1010.3
20240222083304 26 335 0.0 0.0 0.00 0.00 0.00 86 1010.4
20240222082305 26 332 0.0 0.0 0.00 0.00 0.00 86 1010.3
20240222081804 26 331 0.0 0.0 0.00 0.00 0.00 86 1010.3
20240222081304 26 334 0.0 0.0 0.00 0.00 0.00 86 1010.3
20240222080804 26 336 0.0 0.0 0.00 0.00 0.00 86 1010.4
20240222080304 26 334 0.0 0.9 0.00 0.00 0.00 86 1010.4
20240222075804 26 334 0.0 0.9 0.00 0.00 0.00 86 1010.4
20240222075306 26 332 0.0 0.0 0.00 0.00 0.00 86 1010.3
20240222074804 27 333 0.0 0.0 0.00 0.00 0.00 86 1010.3
20240222074304 26 330 0.0 0.0 0.00 0.00 0.00 86 1010.4
20240222073804 27 330 0.0 0.0 0.00 0.00 0.00 86 1010.4
20240222073304 27 334 0.0 0.0 0.00 0.00 0.00 86 1010.4
20240222072804 27 344 0.0 0.0 0.00 0.00 0.00 86 1010.4
20240222072305 27 344 0.0 0.0 0.00 0.00 0.00 86 1010.4
20240222071804 27 344 0.0 0.0 0.00 0.00 0.00 86 1010.5
20240222071304 27 345 0.0 0.0 0.00 0.00 0.00 86 1010.4
20240222070804 27 346 0.0 0.0 0.00 0.00 0.00 86 1010.4
20240222070304 27 346 0.0 0.0 0.00 0.00 0.00 86 1010.6
20240222065803 27 346 0.0 0.0 0.00 0.00 0.00 86 1010.7
20240222065305 27 346 0.0 0.0 0.00 0.00 0.00 86 1010.8
20240222064804 28 346 0.0 0.0 0.00 0.00 0.00 86 1010.9
20240222064304 28 346 0.0 0.0 0.00 0.00 0.00 86 1010.9
20240222063305 28 346 0.0 0.0 0.00 0.00 0.00 86 1010.9
20240222062804 28 346 0.0 0.0 0.00 0.00 0.00 86 1010.9
20240222062305 28 346 0.0 0.0 0.00 0.00 0.00 86 1010.9
20240222061804 28 346 0.0 0.0 0.00 0.00 0.00 86 1011.1
20240222061304 28 346 0.0 0.0 0.00 0.00 0.00 86 1011.0
20240222060828 28 346 0.0 0.0 0.00 0.00 0.00 86 1011.1
20240222060304 28 346 0.0 0.0 0.00 0.00 0.00 84 1011.2
20240222055804 28 346 0.0 0.0 0.00 0.00 0.00 74 1011.2
20240222055306 28 346 0.0 0.0 0.00 0.00 0.00 74 1011.2
20240222054804 28 346 0.0 0.9 0.00 0.00 0.00 74 1011.1
20240222054304 28 345 0.0 0.9 0.00 0.00 0.00 74 1011.1
20240222053304 28 344 0.0 0.0 0.00 0.00 0.00 74 1011.1
20240222052803 28 344 0.0 0.0 0.00 0.00 0.00 74 1011.2
20240222052306 28 344 0.0 0.0 0.00 0.00 0.00 74 1011.1
20240222051804 28 344 0.0 0.0 0.00 0.00 0.00 74 1011.1
20240222051304 28 343 0.0 0.0 0.00 0.00 0.00 74 1011.2
20240222050804 28 340 0.0 0.0 0.00 0.00 0.00 74 1011.2
20240222050304 28 335 0.0 0.0 0.00 0.00 0.00 72 1011.2
20240222045804 28 325 0.0 0.0 0.00 0.00 0.00 64 1011.2
20240222045306 28 328 0.0 0.0 0.00 0.00 0.00 64 1011.2
20240222044804 29 326 0.0 0.0 0.00 0.00 0.00 64 1011.2
20240222044304 29 333 0.0 0.0 0.00 0.00 0.00 64 1011.3
20240222043804 29 334 0.0 0.0 0.00 0.00 0.00 64 1011.4
20240222043304 29 330 0.0 0.9 0.00 0.00 0.00 64 1011.3
20240222042804 29 332 0.0 0.0 0.00 0.00 0.00 64 1011.3
20240222042306 29 342 0.0 0.0 0.00 0.00 0.00 64 1011.3
20240222041804 29 345 0.0 0.0 0.00 0.00 0.00 64 1011.4
20240222041304 29 344 0.0 0.0 0.00 0.00 0.00 64 1011.4
20240222040804 29 341 0.0 0.0 0.00 0.00 0.00 64 1011.4
20240222040304 29 338 0.0 0.0 0.00 0.00 0.00 64 1011.4
20240222035804 30 337 0.0 0.0 0.00 0.00 0.00 59 1011.4
20240222035306 30 300 0.0 0.0 0.00 0.00 0.00 59 1011.5
20240222034305 30 299 0.9 1.7 0.00 0.00 0.00 59 1011.4
20240222032804 30 300 0.0 0.9 0.00 0.00 0.00 59 1011.3
20240222032306 30 299 0.0 0.0 0.00 0.00 0.00 59 1011.2
20240222031804 31 298 0.0 0.0 0.00 0.00 0.00 59 1011.2
20240222031304 31 299 0.0 0.0 0.00 0.00 0.00 59 1011.1
20240222030804 31 300 0.0 0.0 0.00 0.00 0.00 59 1011.1
20240222030304 31 300 0.0 0.0 0.00 0.00 0.00 59 1011.1
20240222025804 30 300 0.0 0.0 0.00 0.00 0.00 59 1011.2
20240222025305 31 300 0.0 0.0 0.00 0.00 0.00 59 1011.1
20240222024804 31 299 0.0 0.9 0.00 0.00 0.00 59 1011.2
20240222024304 31 298 0.9 0.9 0.00 0.00 0.00 59 1011.2
20240222023804 31 298 0.0 0.0 0.00 0.00 0.00 59 1011.2
20240222023304 31 299 0.0 0.0 0.00 0.00 0.00 59 1011.2
20240222022305 31 298 0.0 0.9 0.00 0.00 0.00 59 1011.2
20240222021804 32 299 0.0 0.9 0.00 0.00 0.00 59 1011.3
20240222021303 32 298 0.0 0.0 0.00 0.00 0.00 59 1011.3
20240222020804 32 299 0.0 0.0 0.00 0.00 0.00 59 1011.3
20240222020304 32 299 0.0 0.0 0.00 0.00 0.00 59 1011.3
20240222015803 32 344 0.0 0.0 0.00 0.00 0.00 52 1011.2
20240222015306 33 346 0.0 0.0 0.00 0.00 0.00 52 1011.3
20240222014804 32 346 0.0 0.0 0.00 0.00 0.00 52 1011.3
20240222014304 33 347 0.0 0.9 0.00 0.00 0.00 52 1011.3
20240222013804 33 347 0.0 0.0 0.00 0.00 0.00 52 1011.4
20240222012804 34 347 0.0 0.0 0.00 0.00 0.00 52 1011.4
20240222012306 34 347 0.0 0.0 0.00 0.00 0.00 52 1011.4
20240222011804 34 347 0.0 0.0 0.00 0.00 0.00 52 1011.3
20240222011304 34 347 0.0 0.0 0.00 0.00 0.00 52 1011.4
20240222010804 34 347 0.0 0.0 0.00 0.00 0.00 52 1011.4
20240222010304 35 347 0.0 0.0 0.00 0.00 0.00 52 1011.3
20240222005804 35 347 0.0 0.0 0.00 0.00 0.00 45 1011.3
20240222004804 35 348 0.0 0.0 0.00 0.00 0.00 45 1011.3
20240222004304 35 348 0.0 0.0 0.00 0.00 0.00 45 1011.2
20240222003804 36 348 0.0 0.0 0.00 0.00 0.00 45 1011.2
20240222002804 37 348 0.0 0.0 0.00 0.00 0.00 45 1011.2
20240222002306 37 347 0.0 0.9 0.00 0.00 0.00 45 1011.3
20240222001804 37 347 0.0 0.0 0.00 0.00 0.00 45 1011.3
20240222001304 38 347 0.0 0.0 0.00 0.00 0.00 45 1011.3
20240222000804 38 345 0.0 0.0 0.00 0.00 0.00 45 1011.2
20240222000304 39 340 0.0 0.0 0.00 0.00 0.00 45 1011.2
20240221235306 40 298 0.0 0.0 0.00 0.00 0.00 36 1011.1
20240221234804 41 306 0.0 0.0 0.00 0.00 0.00 36 1011.0
20240221234304 42 323 0.0 0.0 0.00 0.00 0.00 36 1010.9
20240221233304 43 294 0.0 0.9 0.00 0.00 0.00 36 1010.8
20240221232804 43 290 0.9 0.9 0.00 0.00 0.00 36 1010.8
20240221232306 43 289 0.9 1.7 0.00 0.00 0.00 36 1010.7
20240221231304 44 288 0.9 1.7 0.00 0.00 0.00 36 1010.7
20240221230804 45 289 0.9 1.7 0.00 0.00 0.00 36 1010.6
20240221230304 46 289 0.9 1.7 0.00 0.00 0.00 36 1010.7
20240221225804 46 352 0.9 2.6 0.00 0.00 0.00 31 1010.7
20240221225306 47 351 0.9 2.6 0.00 0.00 0.00 31 1010.6
20240221224804 47 351 0.9 2.6 0.00 0.00 0.00 31 1010.6
20240221224304 48 351 0.9 2.6 0.00 0.00 0.00 31 1010.5
20240221223803 48 345 2.6 4.3 0.00 0.00 0.00 31 1010.6
20240221223304 48 348 1.7 2.6 0.00 0.00 0.00 31 1010.7
20240221222804 48 294 0.0 0.9 0.00 0.00 0.00 31 1010.8
20240221222306 48 294 0.0 2.6 0.00 0.00 0.00 31 1010.9
20240221221804 48 291 1.7 2.6 0.00 0.00 0.00 31 1011.0
20240221220805 48 255 1.7 2.6 0.00 0.00 0.00 31 1011.0
20240221220304 49 275 1.7 4.3 0.00 0.00 0.00 31 1010.9
20240221215804 49 241 0.9 1.7 0.00 0.00 0.00 39 1010.9
20240221215306 49 236 0.9 2.6 0.00 0.00 0.00 39 1010.9
20240221214804 49 258 0.9 2.6 0.00 0.00 0.00 39 1011.1
20240221213803 49 301 3.5 7.0 0.00 0.00 0.00 39 1011.2
20240221213304 49 313 2.6 6.1 0.00 0.00 0.00 39 1011.1
20240221212804 49 302 0.9 2.6 0.00 0.00 0.00 39 1011.2
20240221212306 48 259 1.7 2.6 0.00 0.00 0.00 39 1011.2
20240221211804 48 293 1.7 2.6 0.00 0.00 0.00 39 1011.3
20240221210804 48 282 1.7 2.6 0.00 0.00 0.00 39 1011.3
20240221210304 48 237 0.9 5.2 0.00 0.00 0.00 39 1011.2
20240221205804 48 281 0.9 2.6 0.00 0.00 0.00 39 1011.3
20240221205305 49 215 1.7 2.6 0.00 0.00 0.00 39 1011.2
20240221204304 49 262 0.9 1.7 0.00 0.00 0.00 39 1011.2
20240221203804 49 272 0.9 1.7 0.00 0.00 0.00 39 1011.4
20240221203304 49 265 0.0 1.7 0.00 0.00 0.00 39 1011.3
20240221202803 48 265 1.7 4.3 0.00 0.00 0.00 39 1011.5
20240221202305 48 232 2.6 4.3 0.00 0.00 0.00 39 1011.8
20240221201804 48 215 2.6 6.1 0.00 0.00 0.00 39 1011.9
20240221201304 49 257 1.7 7.0 0.00 0.00 0.00 39 1011.9
20240221200804 49 284 2.6 6.1 0.00 0.00 0.00 39 1011.8
20240221195804 48 270 2.6 5.2 0.00 0.00 0.00 33 1011.9
20240221195306 49 235 0.9 1.7 0.00 0.00 0.00 33 1011.8
20240221194804 48 229 1.7 2.6 0.00 0.00 0.00 33 1011.7
20240221194304 48 212 2.6 4.3 0.00 0.00 0.00 33 1011.8
20240221193304 48 203 1.7 5.2 0.00 0.00 0.00 33 1011.9
20240221192804 48 290 1.7 5.2 0.00 0.00 0.00 33 1011.9
20240221192306 48 287 2.6 6.1 0.00 0.00 0.00 33 1012.0
20240221191804 48 325 1.7 2.6 0.00 0.00 0.00 33 1011.8
20240221191303 48 219 0.0 2.6 0.00 0.00 0.00 33 1011.9
20240221190303 48 237 1.7 2.6 0.00 0.00 0.00 35 1012.2
20240221185803 48 289 1.7 4.3 0.00 0.00 0.00 45 1012.4
20240221185305 48 189 2.6 4.3 0.00 0.00 0.00 45 1012.5
20240221184304 48 220 3.5 7.8 0.00 0.00 0.00 45 1012.5
20240221183804 48 189 1.7 4.3 0.00 0.00 0.00 45 1012.5
20240221183304 47 306 1.7 5.2 0.00 0.00 0.00 45 1012.7
20240221182804 46 240 1.7 4.3 0.00 0.00 0.00 45 1012.8
20240221182306 47 204 2.6 5.2 0.00 0.00 0.00 45 1012.9
20240221181804 47 187 0.0 4.3 0.00 0.00 0.00 45 1013.0
20240221181304 47 216 2.6 5.2 0.00 0.00 0.00 45 1013.1
20240221180804 46 219 3.5 5.2 0.00 0.00 0.00 45 1013.2
20240221180304 46 224 2.6 5.2 0.00 0.00 0.00 45 1013.3
20240221175306 46 199 2.6 6.1 0.00 0.00 0.00 48 1013.5
20240221174304 45 271 2.6 6.1 0.00 0.00 0.00 48 1013.5
20240221173804 45 220 0.9 2.6 0.00 0.00 0.00 48 1013.6
20240221173303 45 304 2.6 4.3 0.00 0.00 0.00 48 1013.6
20240221172804 45 257 1.7 4.3 0.00 0.00 0.00 48 1013.7
20240221172305 44 222 2.6 7.0 0.00 0.00 0.00 48 1013.8
20240221171804 44 339 1.7 2.6 0.00 0.00 0.00 48 1013.8
20240221170804 43 301 3.5 6.1 0.00 0.00 0.00 48 1013.8
20240221170304 43 247 0.9 2.6 0.00 0.00 0.00 52 1013.7
20240221165804 42 210 1.7 5.2 0.00 0.00 0.00 69 1013.7
20240221165306 42 251 1.7 2.6 0.00 0.00 0.00 69 1013.8
20240221164804 42 265 2.6 5.2 0.00 0.00 0.00 69 1013.7
20240221163804 42 295 0.9 2.6 0.00 0.00 0.00 69 1013.7
20240221163304 41 259 1.7 2.6 0.00 0.00 0.00 69 1013.7
20240221162804 41 214 1.7 2.6 0.00 0.00 0.00 69 1013.7
20240221162306 41 279 0.9 2.6 0.00 0.00 0.00 69 1013.8
20240221161804 40 221 0.9 2.6 0.00 0.00 0.00 69 1013.9
20240221160804 39 219 1.7 2.6 0.00 0.00 0.00 69 1014.0
20240221160304 38 222 1.7 2.6 0.00 0.00 0.00 72 1014.0
20240221155804 38 243 0.9 2.6 0.00 0.00 0.00 86 1014.1
20240221155306 37 201 1.7 2.6 0.00 0.00 0.00 86 1014.1
20240221154804 37 206 0.9 5.2 0.00 0.00 0.00 86 1014.0
20240221154303 36 185 1.7 2.6 0.00 0.00 0.00 86 1014.0
20240221153804 36 231 0.0 2.6 0.00 0.00 0.00 86 1013.7
20240221153304 35 215 0.9 2.6 0.00 0.00 0.00 86 1013.9
20240221152804 34 222 0.0 1.7 0.00 0.00 0.00 86 1013.8
20240221152306 34 234 0.0 1.7 0.00 0.00 0.00 86 1013.9
20240221151804 33 215 1.7 2.6 0.00 0.00 0.00 86 1013.9
20240221151304 33 232 1.7 2.6 0.00 0.00 0.00 86 1014.0
20240221150804 32 244 0.9 2.6 0.00 0.00 0.00 86 1013.9
20240221150304 31 194 0.9 2.6 0.00 0.00 0.00 86 1013.9
20240221145306 30 289 0.0 0.9 0.00 0.00 0.00 92 1014.0
20240221144804 30 288 0.0 1.7 0.00 0.00 0.00 92 1013.9
20240221144304 29 288 0.0 0.9 0.00 0.00 0.00 92 1014.0
20240221143804 29 286 0.0 1.7 0.00 0.00 0.00 92 1014.0
20240221143304 28 286 0.0 0.0 0.00 0.00 0.00 92 1013.9
20240221142804 27 288 0.0 0.9 0.00 0.00 0.00 92 1014.0
20240221141804 26 291 0.0 0.0 0.00 0.00 0.00 92 1014.0
20240221141304 25 346 0.0 0.0 0.00 0.00 0.00 92 1014.1
20240221140304 24 307 0.0 0.0 0.00 0.00 0.00 92 1014.1
20240221135804 23 296 0.0 0.0 0.00 0.00 0.00 92 1014.1
20240221132804 22 348 0.0 0.0 0.00 0.00 0.00 92 1014.1
20240221132306 21 348 0.0 0.0 0.00 0.00 0.00 92 1013.9
20240221131804 21 348 0.0 0.0 0.00 0.00 0.00 92 1013.6
20240221131304 21 348 0.0 0.0 0.00 0.00 0.00 92 1013.5
20240221130804 21 348 0.0 0.0 0.00 0.00 0.00 92 1013.4
20240221130304 21 348 0.0 0.0 0.00 0.00 0.00 92 1013.5
20240221125804 21 348 0.0 0.0 0.00 0.00 0.00 100 1013.5
20240221125306 21 348 0.0 0.0 0.00 0.00 0.00 100 1013.5
20240221124804 21 351 0.0 0.0 0.00 0.00 0.00 100 1013.6
20240221124304 22 348 0.0 0.0 0.00 0.00 0.00 100 1013.7
20240221123804 22 348 0.0 0.9 0.00 0.00 0.00 100 1013.8
20240221123304 22 348 0.0 0.0 0.00 0.00 0.00 100 1013.8
20240221122804 22 348 0.0 0.0 0.00 0.00 0.00 100 1013.8
20240221121304 22 348 0.0 0.0 0.00 0.00 0.00 100 1013.8
20240221120804 22 348 0.0 0.0 0.00 0.00 0.00 100 1013.8
20240221120304 22 349 0.0 0.0 0.00 0.00 0.00 100 1013.9
20240221115804 22 348 0.0 0.0 0.00 0.00 0.00 92 1014.0
20240221115306 22 348 0.0 0.0 0.00 0.00 0.00 92 1013.9
20240221114304 22 317 0.0 0.0 0.00 0.00 0.00 92 1013.9
20240221113804 22 299 0.0 0.0 0.00 0.00 0.00 92 1013.9
20240221113304 23 298 0.0 0.0 0.00 0.00 0.00 92 1013.8
20240221112804 23 298 0.0 0.0 0.00 0.00 0.00 92 1013.8
20240221112306 23 298 0.0 0.0 0.00 0.00 0.00 92 1013.7
20240221111804 23 299 0.0 0.0 0.00 0.00 0.00 92 1013.7
20240221111304 23 300 0.0 0.0 0.00 0.00 0.00 92 1013.8
20240221110804 23 300 0.0 0.0 0.00 0.00 0.00 92 1013.7
20240221110304 23 301 0.0 1.7 0.00 0.00 0.00 92 1013.7
20240221105804 23 300 0.0 0.9 0.00 0.00 0.00 100 1013.7
20240221105305 23 300 0.0 0.9 0.00 0.00 0.00 100 1013.7
20240221104803 23 300 0.0 0.0 0.00 0.00 0.00 100 1013.8
20240221102307 23 333 0.0 0.0 0.00 0.00 0.00 100 1013.7
20240221101804 23 333 0.0 0.0 0.00 0.00 0.00 100 1013.7